Regional Weather Roundup
Issued by NWS

Home | Current Version | Previous Version | Graphics & Text | Print | Product List | Glossary On
Versions: 1 2 3 4 5 6 7 8 9 10 11 12 13 14 15 16 17 18 19 20 21 22 23 24 25 26 27 28 29 30 31 32 33 34 35 36 37 38 39 40 41 42 43 44 45 46 47 48 49 50
000
ASUS43 KIND 220609
RWRIN

WEATHER ROUNDUP FOR INDIANA
NATIONAL WEATHER SERVICE INDIANAPOLIS IN
200 AM EDT THU JUN 22 2017

NOTE: "FAIR" INDICATES FEW OR NO CLOUDS BELOW 12,000 FEET WITH NO
SIGNIFICANT WEATHER AND/OR OBSTRUCTIONS TO VISIBILITY.

* - STATION DOES NOT REPORT WEATHER SUCH AS PRECIPITATION OR FOG.

+ - STATION NOT QUALITY CONTROLLED BY THE NATIONAL WEATHER SERVICE.
    USE DATA WITH CAUTION...ESPECIALLY DEWPOINT AND RELATIVE
    HUMIDITY OBSERVATIONS.

INZ001>003-010>013-019-020-220700-
NORTHWEST INDIANA

CITY           SKY/WX    TMP DP  RH WIND       PRES   REMARKS
GARY /AIRPORT/ MOCLDY    73  60  63 SE5       29.88F
KNOX *+        CLOUDY    68  55  64 SE5       29.91F
LA PORTE +     PTCLDY    69  61  76 SE3       29.91F
6HR MIN TEMP:  68; 6HR MAX TEMP:  77;

MICHIGAN CITY+ CLOUDY    72  59  64 CALM      29.89F
MONTICELLO +   MOCLDY    74  69  84 S6        29.92S
6HR MIN TEMP:  73; 6HR MAX TEMP:  81;

RENSSELAER +   CLOUDY    72  68  88 CALM      29.91S
VALPARAISO     CLEAR     73  64  73 SE6       29.90F
6HR MIN TEMP:  69; 6HR MAX TEMP:  79;


$$

LMZ046-743>745-220700-
SOUTHERN LAKE MICHIGAN

STATION/POSITION TIME  TEMP    WIND        PRES    WAVE
                       AIR SEA DIR/SP/G            HT
                 (UTC) (F)     (DEG/KT/KT) (MB)    (FT)
BURNS HARBOR     0540   74     150/  6/ 13 1012.2F
MICHIGAN CITY    0540   73     130/  8/ 10   N/A
5NW MICH CITY    0600   71 68  150/  6/  8   N/A     1

$$

INZ004-005-014>016-021>024-220700-
NORTH CENTRAL INDIANA

CITY           SKY/WX    TMP DP  RH WIND       PRES   REMARKS
GOSHEN         PTCLDY    69  57  65 SE7       29.93F
6HR MIN TEMP:  67; 6HR MAX TEMP:  77;

LOGANSPORT +   PTCLDY    68  66  94 S5        29.94S
PERU/GRISSOM   PTCLDY    72  70  92 S5        29.93S
6HR MIN TEMP:  71; 6HR MAX TEMP:  81;

ROCHESTER +    PTCLDY    72  64  78 SE5       29.94S
SOUTH BEND     MOCLDY    72  59  63 SE8       29.91F
6HR MIN TEMP:  68; 6HR MAX TEMP:  76;

WARSAW +       PTCLDY    68  59  73 E5        29.93F

$$

INZ006>009-017-018-025>027-220700-
NORTHEAST INDIANA

CITY           SKY/WX    TMP DP  RH WIND       PRES   REMARKS
AUBURN +       CLOUDY    68  54  60 E5        29.96F
FORT WAYNE     CLOUDY    70  61  73 E6        29.96S
6HR MIN TEMP:  69; 6HR MAX TEMP:  78;

KENDALLVILLE + PTCLDY    67  58  73 SE7       29.96S

$$

INZ028-029-035-036-043>045-051>053-220700-
WEST CENTRAL INDIANA

CITY           SKY/WX    TMP DP  RH WIND       PRES   REMARKS
CRAWFORDSVL +  CLOUDY   N/A N/A N/A S6        29.96S
GREENCASTLE +  PTCLDY    73  68  83 S6        29.98S
LAFAYETTE      PTCLDY    74  69  85 SW6       29.92S
6HR MIN TEMP:  71; 6HR MAX TEMP:  81;

TERRE HAUTE    MOCLDY    76  68  76 S7        29.96S
6HR MIN TEMP:  76; 6HR MAX TEMP:  83;


$$

INZ030>032-037>040-046>048-054>057-064-065-220700-
CENTRAL INDIANA

CITY           SKY/WX    TMP DP  RH WIND       PRES   REMARKS
CP ATTERBURY + CLOUDY    72  68  88 CALM      29.99S
FRANKFORT +    CLOUDY    76  71  84 SW5       29.97S
6HR MIN TEMP:  76; 6HR MAX TEMP:  85;

GREENWOOD *+   CLOUDY    75  67  76 SW6       29.99S
INDIANAPOLIS   PTCLDY    75  69  81 SW9       29.97S
6HR MIN TEMP:  75; 6HR MAX TEMP:  85;

-EAGLE CREEK   PTCLDY    76  68  76 S9        29.97R
6HR MIN TEMP:  76; 6HR MAX TEMP:  86;

KOKOMO +       CLOUDY    75  69  81 SW10      29.95F
6HR MIN TEMP:  72; 6HR MAX TEMP:  83;

MT COMFORT *+  CLEAR     75  68  78 SW9       29.99R
SHELBYVILLE    PTCLDY    74  68  81 SW5       29.98S
6HR MIN TEMP:  74; 6HR MAX TEMP:  84;

ZIONSVILLE +   PTCLDY    75  69  81 SW8       29.98S
6HR MIN TEMP:  74; 6HR MAX TEMP:  83;


$$

INZ033-034-041-042-049-050-058-059-220700-
EAST CENTRAL INDIANA

CITY           SKY/WX    TMP DP  RH WIND       PRES   REMARKS
MUNCIE         MOCLDY    77  69  76 SW7       29.96S
6HR MIN TEMP:  76; 6HR MAX TEMP:  84;


$$

INZ060-061-067>069-081>083-085>088-220700-
SOUTHWEST INDIANA

CITY           SKY/WX    TMP DP  RH WIND       PRES   REMARKS
EVANSVILLE     PTCLDY    75  66  73 S7        29.98S
6HR MIN TEMP:  75; 6HR MAX TEMP:  84;

HUNTINGBURG *+ PTCLDY    73  68  84 S3        30.00R
6HR MIN TEMP:  73; 6HR MAX TEMP:  83;

WASHINGTON +   PTCLDY    71  68  89 S5        29.97S
6HR MIN TEMP:  71; 6HR MAX TEMP:  85;


$$

INZ062-063-066-070>080-084-089>092-220700-
SOUTH CENTRAL AND SOUTHEAST INDIANA

CITY           SKY/WX    TMP DP  RH WIND       PRES   REMARKS
BEDFORD +      CLOUDY    73  66  78 S3        29.99S
BLOOMINGTON    CLOUDY    73  66  78 S7        29.99S
6HR MIN TEMP:  73; 6HR MAX TEMP:  83;

MADISON *+     PTCLDY    73  64  73 S6        30.04R
NORTH VERNON + CLOUDY    72  66  83 S6        30.01S
SEYMOUR +      PTCLDY    73  68  83 S5        29.99S

$$





USA.gov is the U.S. government's official web portal to all federal, state and local government web resources and services.